User: anonymous   Login
Location: Franzen
(48.6167°N, 15.3833°E)
Time: 09:58:09
(UTC+00:00)
Language:

Cosmos 1766 Rocket - Orbit

View from above orbital plane
View from above orbital plane
View from above satellite
View from above satellite

Ground track
Ground track

The orbit data is extracted from the following two-line orbital elements,

1 16882U 86055B   21164.86575991  .00000070  00000-0  57034-5 0  9994
2 16882  82.5207 308.7889 0018323 283.6357 188.2199 14.83272178862822
Epoch (UTC): 13 June 2021 20:46:41
Eccentricity: 0.0018323
inclination: 82.5207°
perigee height: 606 km
apogee height: 632 km
right ascension of ascending node: 308.7889°
argument of perigee: 283.6357°
revolutions per day: 14.83272178
mean anomaly at epoch: 188.2199°
orbit number at epoch: 86282

The dashed part of the orbit path shows where the satellite is in the earth's shadow,  

DLR